Weather History for Carmi, IL

Change the Weather History Date:

Thursday, August 22, 2013

  Actual Average (KEVV) Record (KEVV)
Temperature  
Mean Temperature 78 °F 76 °F  
Max Temperature 91 °F 88 °F 101 °F (1983)
Min Temperature 66 °F 65 °F 49 °F (1950)
Degree Days  
Heating Degree Days 0 0  
Month to date heating degree days 0  
Since 1 June heating degree days 6  
Since 1 July heating degree days 0  
Cooling Degree Days 14 11  
Month to date cooling degree days 266  
Year to date cooling degree days 1102  
Since 1 June cooling degree days 967  
Growing Degree Days 28 (Base 50)    
Moisture  
Dew Point 70 °F    
Average Humidity 77    
Maximum Humidity 96    
Minimum Humidity 50    
Precipitation  
Precipitation 0.00 in 0.10 in 1.60 in (1937)
Month to date precipitation 2.14  
Year to date precipitation 30.08  
Snow  
Snow 0.00 in 0.00 in 0.00 in (2002)
Month to date snowfall 0.0  
Since 1 June snowfall 0.0  
Since 1 July snowfall 0.0  
Snow Depth -    
Sea Level Pressure  
Sea Level Pressure 30.08 in    
Wind  
Wind Speed 2 mph (SW)    
Max Wind Speed 9 mph    
Max Gust Speed -    
Visibility 7 miles    
Events Fog    
T = Trace of Precipitation, MM = Missing Value Source: NWS Daily Summary

Daily Weather History Graph

Daily Weather History Graph

Search for Another Location

Airport:

Trip Planner

Search our weather history database for the weather conditions in past years. The results will help you decide how hot, cold, wet, or windy it might be!

Date:

Astronomy

Aug. 22, 2013 Rise Set
Actual Time 6:13 AM CDT 7:36 PM CDT
Civil Twilight 5:46 AM CDT 8:03 PM CDT
Nautical Twilight 5:13 AM CDT 8:36 PM CDT
Astronomical Twilight 4:38 AM CDT 9:11 PM CDT
Moon 8:23 PM CDT (8/22) 7:59 AM CDT (8/22)
Length of Visible Light 14h 17m
Length of Day
13h 22m
Waning Gibbous, 96% of the Moon is Illuminated
Aug 22
Waning Gibbous
Aug 28
Last Quarter
Sep 5
New
Sep 12
First Quarter
Sep 19
Full

Hourly Weather History & Observations

Time (CDT) Temp. Heat Index Dew Point Humidity Pressure Visibility Wind Dir Wind Speed Gust Speed Precip Events Conditions
12:15 AM 69.6 °F - 67.8 °F 94% 30.11 in 3.0 mi Calm Calm - N/A   Clear
12:35 AM 69.6 °F - 68.0 °F 95% 30.11 in 5.0 mi Calm Calm - N/A   Clear
12:55 AM 70.2 °F - 68.5 °F 95% 30.11 in 5.0 mi Calm Calm - N/A   Clear
1:15 AM 69.3 °F - 67.8 °F 95% 30.10 in 5.0 mi Calm Calm - N/A   Clear
1:35 AM 69.8 °F - 68.2 °F 95% 30.09 in 7.0 mi Calm Calm - N/A   Clear
1:55 AM 68.0 °F - 66.2 °F 94% 30.08 in 4.0 mi Calm Calm - N/A   Clear
2:15 AM 67.1 °F - 65.5 °F 95% 30.08 in 0.5 mi Calm Calm - N/A Fog Fog
2:35 AM 67.1 °F - 65.5 °F 95% 30.08 in 0.5 mi Calm Calm - N/A Fog Fog
2:55 AM 67.1 °F - 65.8 °F 96% 30.08 in 3.0 mi Calm Calm - N/A   Clear
3:15 AM 66.6 °F - 65.3 °F 96% 30.09 in 0.8 mi SSE 3.5 mph - N/A   Mist
3:35 AM 67.8 °F - 66.4 °F 95% 30.09 in 2.5 mi SSE 3.5 mph - N/A   Clear
3:55 AM 66.9 °F - 65.3 °F 95% 30.09 in 2.0 mi Calm Calm - N/A   Clear
4:15 AM 66.6 °F - 65.1 °F 95% 30.10 in 1.8 mi Calm Calm - N/A   Mist
4:35 AM 67.5 °F - 66.0 °F 95% 30.10 in 7.0 mi Calm Calm - N/A   Clear
4:55 AM 67.5 °F - 66.0 °F 95% 30.10 in 3.0 mi Calm Calm - N/A   Clear
5:15 AM 66.2 °F - 64.8 °F 95% 30.11 in 5.0 mi Calm Calm - N/A   Clear
5:35 AM 66.4 °F - 65.1 °F 96% 30.11 in 1.2 mi Calm Calm - N/A   Scattered Clouds
5:55 AM 66.6 °F - 65.3 °F 96% 30.11 in 3.0 mi South 3.5 mph - N/A   Clear
6:15 AM 66.0 °F - 64.6 °F 95% 30.11 in 1.5 mi Calm Calm - N/A   Mist
6:35 AM 67.1 °F - 65.7 °F 95% 30.11 in 1.2 mi SSE 3.5 mph - N/A   Mist
6:55 AM 68.4 °F - 67.1 °F 96% 30.11 in 1.8 mi Calm Calm - N/A   Mist
7:15 AM 69.8 °F - 68.5 °F 96% 30.12 in 2.5 mi Calm Calm - N/A   Clear
7:35 AM 71.8 °F - 70.3 °F 95% 30.11 in 4.0 mi South 3.5 mph - N/A   Clear
7:55 AM 73.0 °F - 70.9 °F 93% 30.12 in 5.0 mi Calm Calm - N/A   Clear
8:15 AM 75.2 °F - 71.4 °F 88% 30.11 in 7.0 mi Calm Calm - N/A   Clear
8:35 AM 77.2 °F - 71.8 °F 83% 30.12 in 10.0 mi WSW 3.5 mph - N/A   Clear
8:55 AM 78.3 °F - 71.2 °F 79% 30.11 in 10.0 mi SSW 5.8 mph - N/A   Clear
9:15 AM 80.2 °F 83.9 °F 71.4 °F 74% 30.11 in 10.0 mi SW 5.8 mph - N/A   Clear
9:35 AM 81.9 °F 86.2 °F 71.2 °F 70% 30.11 in 10.0 mi SW 4.6 mph - N/A   Clear
9:55 AM 83.5 °F 89.1 °F 72.3 °F 69% 30.11 in 10.0 mi SW 5.8 mph - N/A   Clear
10:15 AM 85.1 °F 90.1 °F 70.7 °F 62% 30.12 in 10.0 mi WSW 6.9 mph - N/A   Clear
10:35 AM 85.6 °F 90.8 °F 70.7 °F 61% 30.12 in 10.0 mi WSW 6.9 mph - N/A   Clear
10:55 AM 86.2 °F 91.8 °F 71.2 °F 61% 30.12 in 10.0 mi West 5.8 mph - N/A   Clear
11:15 AM 86.9 °F 92.5 °F 71.1 °F 59% 30.12 in 10.0 mi West 9.2 mph - N/A   Clear
11:35 AM 87.8 °F 93.4 °F 70.9 °F 57% 30.11 in 10.0 mi WNW 5.8 mph - N/A   Clear
11:55 AM 87.6 °F 93.1 °F 70.7 °F 57% 30.11 in 10.0 mi West 5.8 mph - N/A   Clear
12:15 PM 87.6 °F 92.3 °F 69.4 °F 55% 30.10 in 10.0 mi WNW 5.8 mph - N/A   Mostly Cloudy
12:35 PM 87.4 °F 92.7 °F 70.3 °F 57% 30.10 in 10.0 mi WNW 6.9 mph - N/A   Scattered Clouds
12:55 PM 88.9 °F 93.8 °F 69.6 °F 53% 30.09 in 10.0 mi SW 3.5 mph - N/A   Scattered Clouds
1:15 PM 86.7 °F 91.4 °F 69.6 °F 57% 30.09 in 10.0 mi WNW 4.6 mph - N/A   Mostly Cloudy
1:35 PM 87.8 °F 92.6 °F 70.0 °F 55% 30.09 in 10.0 mi Calm Calm - N/A   Scattered Clouds
1:55 PM 90.0 °F 94.5 °F 69.3 °F 50% 30.08 in 10.0 mi West 5.8 mph - N/A   Clear
2:15 PM 89.2 °F 93.6 °F 68.7 °F 51% 30.07 in 10.0 mi West 5.8 mph - N/A   Clear
2:35 PM 88.0 °F 92.1 °F 68.9 °F 53% 30.07 in 10.0 mi Calm Calm - N/A   Scattered Clouds
2:55 PM 91.0 °F 96.6 °F 69.8 °F 50% 30.06 in 10.0 mi SSW 3.5 mph - N/A   Scattered Clouds
3:15 PM 89.8 °F 94.6 °F 69.4 °F 51% 30.06 in 10.0 mi SW 3.5 mph - N/A   Scattered Clouds
3:35 PM 89.6 °F 95.2 °F 70.2 °F 53% 30.05 in 10.0 mi NNW 8.1 mph - N/A   Scattered Clouds
3:55 PM 87.6 °F 93.1 °F 70.9 °F 57% 30.04 in 10.0 mi Calm Calm - N/A   Mostly Cloudy
4:15 PM 89.4 °F 94.4 °F 69.4 °F 52% 30.04 in 10.0 mi Calm Calm - N/A   Clear
4:35 PM 89.2 °F 94.1 °F 69.3 °F 52% 30.04 in 10.0 mi Calm Calm - N/A   Clear
4:55 PM 89.6 °F 95.2 °F 70.2 °F 53% 30.03 in 10.0 mi Calm Calm - N/A   Clear
5:15 PM 88.0 °F 92.5 °F 69.3 °F 54% 30.02 in 10.0 mi Calm Calm - N/A   Clear
5:35 PM 87.8 °F 91.8 °F 68.9 °F 53% 30.03 in 10.0 mi Calm Calm - N/A   Clear
5:55 PM 87.3 °F 95.3 °F 73.6 °F 64% 30.03 in 10.0 mi Calm Calm - N/A   Clear
6:15 PM 87.4 °F 96.2 °F 74.5 °F 65% 30.02 in 10.0 mi ESE 3.5 mph - N/A   Clear
6:35 PM 86.4 °F 94.6 °F 74.3 °F 67% 30.02 in 10.0 mi East 3.5 mph - N/A   Clear
6:55 PM 84.9 °F 93.7 °F 75.2 °F 73% 30.02 in 10.0 mi ESE 3.5 mph - N/A   Clear
7:15 PM 84.2 °F 90.6 °F 73.2 °F 69% 30.02 in 10.0 mi Calm Calm - N/A   Clear
7:35 PM 81.7 °F 87.1 °F 73.6 °F 76% 30.01 in 10.0 mi South 3.5 mph - N/A   Clear
7:55 PM 79.5 °F - 73.4 °F 81% 30.02 in 10.0 mi SSE 3.5 mph - N/A   Clear
8:15 PM 79.2 °F - 72.5 °F 80% 30.02 in 10.0 mi SSE 4.6 mph - N/A   Clear
8:35 PM 77.7 °F - 72.7 °F 84% 30.02 in 10.0 mi South 3.5 mph - N/A   Clear
8:55 PM 77.2 °F - 72.7 °F 86% 30.03 in 10.0 mi Calm Calm - N/A   Clear
9:15 PM 77.0 °F - 72.5 °F 86% 30.04 in 10.0 mi Calm Calm - N/A   Clear
9:35 PM 76.5 °F - 72.3 °F 87% 30.05 in 10.0 mi Calm Calm - N/A   Clear
9:55 PM 73.8 °F - 70.7 °F 90% 30.05 in 7.0 mi ESE 3.5 mph - N/A   Clear
10:15 PM 73.8 °F - 71.6 °F 93% 30.05 in 7.0 mi Calm Calm - N/A   Clear
10:35 PM 74.3 °F - 72.1 °F 93% 30.05 in 7.0 mi Calm Calm - N/A   Clear
10:55 PM 74.3 °F - 71.8 °F 92% 30.05 in 7.0 mi Calm Calm - N/A   Clear
11:15 PM 73.6 °F - 70.9 °F 91% 30.05 in 7.0 mi Calm Calm - N/A   Clear
11:35 PM 72.7 °F - 70.7 °F 93% 30.05 in 7.0 mi Calm Calm - N/A   Clear
11:55 PM 72.3 °F - 70.2 °F 93% 30.05 in 5.0 mi Calm Calm - N/A   Clear